• In United Kingdom
  • List of Countries
  • For 7 days
  • Water Temperature
  • Satellite Maps
  • Weather Map
  • Weather Widgets
  • user-avatar
    Login

    Hourly Weather Namibe

    Today, 29 June, Thursday

    Time Temperature Precipitation Wind Pressure Humidity
    00:00 +25°C° 0 mm 4 mps 760 mmHg 42%
    01:00 +25°C° 0 mm 4 mps 760 mmHg 42%
    02:00 +23°C° 0 mm 4 mps 759 mmHg 42%
    03:00 +23°C° 0 mm 4 mps 759 mmHg 42%
    04:00 +23°C° 0 mm 4 mps 759 mmHg 41%
    05:00 +23°C° 0 mm 4 mps 759 mmHg 40%
    06:00 +23°C° 0 mm 4 mps 759 mmHg 39%
    07:00 +23°C° 0 mm 4 mps 759 mmHg 38%
    08:00 +27°C° 0 mm 4 mps 760 mmHg 31%
    09:00 +30°C° 0 mm 4 mps 760 mmHg 24%
    10:00 +34°C° 0 mm 4 mps 760 mmHg 17%
    11:00 +35°C° 0 mm 4 mps 760 mmHg 16%
    12:00 +37°C° 0 mm 5 mps 759 mmHg 15%
    13:00 +39°C° 0 mm 6 mps 759 mmHg 14%
    14:00 +38°C° 0 mm 6 mps 759 mmHg 17%
    15:00 +38°C° 0 mm 7 mps 758 mmHg 20%
    16:00 +37°C° 0 mm 8 mps 758 mmHg 24%
    17:00 +33°C° 0 mm 7 mps 758 mmHg 31%
    18:00 +30°C° 0 mm 6 mps 759 mmHg 39%
    19:00 +27°C° 0 mm 5 mps 759 mmHg 46%
    20:00 +27°C° 0 mm 4 mps 760 mmHg 48%
    21:00 +26°C° 0 mm 4 mps 760 mmHg 51%
    22:00 +25°C° 0 mm 3 mps 761 mmHg 53%
    23:00 +25°C° 0 mm 3 mps 761 mmHg 52%

    Tomorrow, 30 June, Friday

    Time Temperature Precipitation Wind Pressure Humidity
    00:00 +25°C° 0 mm 3 mps 761 mmHg 52%
    01:00 +24°C° 0 mm 3 mps 761 mmHg 52%
    02:00 +24°C° 0 mm 3 mps 761 mmHg 51%
    03:00 +24°C° 0 mm 3 mps 760 mmHg 51%
    04:00 +22°C° 0 mm 3 mps 760 mmHg 51%
    05:00 +22°C° 0 mm 3 mps 760 mmHg 51%
    06:00 +22°C° 0 mm 3 mps 760 mmHg 50%
    07:00 +22°C° 0 mm 3 mps 761 mmHg 50%
    08:00 +26°C° 0 mm 3 mps 761 mmHg 41%
    09:00 +29°C° 0 mm 3 mps 761 mmHg 33%
    10:00 +33°C° 0 mm 3 mps 762 mmHg 24%
    11:00 +34°C° 0 mm 4 mps 761 mmHg 22%
    12:00 +36°C° 0 mm 5 mps 760 mmHg 19%
    13:00 +39°C° 0 mm 5 mps 760 mmHg 17%
    14:00 +38°C° 0 mm 6 mps 759 mmHg 20%
    15:00 +36°C° 0 mm 7 mps 759 mmHg 23%
    16:00 +35°C° 0 mm 7 mps 758 mmHg 27%
    17:00 +33°C° 0 mm 7 mps 759 mmHg 34%
    18:00 +30°C° 0 mm 6 mps 759 mmHg 41%
    19:00 +27°C° 0 mm 6 mps 759 mmHg 48%
    20:00 +27°C° 0 mm 5 mps 760 mmHg 49%
    21:00 +26°C° 0 mm 4 mps 760 mmHg 50%
    22:00 +26°C° 0 mm 3 mps 761 mmHg 51%
    23:00 +25°C° 0 mm 3 mps 761 mmHg 49%

    Day after tomorrow, 1 July, Saturday

    Time Temperature Precipitation Wind Pressure Humidity
    00:00 +25°C° 0 mm 3 mps 760 mmHg 48%
    01:00 +25°C° 0 mm 3 mps 760 mmHg 47%
    02:00 +25°C° 0 mm 3 mps 760 mmHg 46%
    03:00 +23°C° 0 mm 4 mps 759 mmHg 45%
    04:00 +23°C° 0 mm 4 mps 759 mmHg 44%
    05:00 +23°C° 0 mm 4 mps 759 mmHg 42%
    06:00 +25°C° 0 mm 4 mps 760 mmHg 40%
    07:00 +25°C° 0 mm 4 mps 760 mmHg 38%
    08:00 +28°C° 0 mm 4 mps 760 mmHg 31%
    09:00 +32°C° 0 mm 4 mps 760 mmHg 23%
    10:00 +35°C° 0 mm 5 mps 761 mmHg 16%
    11:00 +37°C° 0 mm 5 mps 760 mmHg 14%
    12:00 +40°C° 0 mm 5 mps 759 mmHg 12%
    13:00 +42°C° 0 mm 6 mps 759 mmHg 10%
    14:00 +41°C° 0 mm 6 mps 758 mmHg 11%
    15:00 +41°C° 0 mm 7 mps 758 mmHg 13%
    16:00 +40°C° 0 mm 8 mps 757 mmHg 14%
    17:00 +37°C° 0 mm 8 mps 758 mmHg 22%
    18:00 +34°C° 0 mm 7 mps 758 mmHg 29%
    19:00 +30°C° 0 mm 7 mps 758 mmHg 37%
    20:00 +29°C° 0 mm 5 mps 759 mmHg 38%
    21:00 +28°C° 0 mm 4 mps 759 mmHg 40%
    22:00 +27°C° 0 mm 3 mps 760 mmHg 42%
    23:00 +27°C° 0 mm 3 mps 760 mmHg 43%

    2 July, Sunday

    Time Temperature Precipitation Wind Pressure Humidity
    00:00 +26°C° 0 mm 3 mps 759 mmHg 44%
    01:00 +25°C° 0 mm 3 mps 759 mmHg 45%
    02:00 +25°C° 0 mm 3 mps 759 mmHg 45%
    03:00 +24°C° 0 mm 3 mps 759 mmHg 45%
    04:00 +23°C° 0 mm 4 mps 758 mmHg 45%
    05:00 +23°C° 0 mm 4 mps 759 mmHg 40%
    06:00 +23°C° 0 mm 4 mps 759 mmHg 35%
    07:00 +23°C° 0 mm 4 mps 759 mmHg 30%
    08:00 +27°C° 0 mm 4 mps 759 mmHg 25%
    09:00 +30°C° 0 mm 4 mps 760 mmHg 20%
    10:00 +35°C° 0 mm 4 mps 760 mmHg 15%
    11:00 +36°C° 0 mm 4 mps 759 mmHg 14%
    12:00 +39°C° 0 mm 5 mps 758 mmHg 13%
    13:00 +41°C° 0 mm 5 mps 758 mmHg 12%
    14:00 +39°C° 0 mm 5 mps 757 mmHg 16%
    15:00 +38°C° 0 mm 6 mps 757 mmHg 21%
    16:00 +35°C° 0 mm 6 mps 756 mmHg 26%
    17:00 +33°C° 0 mm 5 mps 757 mmHg 34%
    18:00 +30°C° 0 mm 4 mps 758 mmHg 42%
    19:00 +28°C° 0 mm 2 mps 758 mmHg 50%
    20:00 +27°C° 0 mm 2 mps 758 mmHg 51%
    21:00 +26°C° 0 mm 2 mps 759 mmHg 53%
    22:00 +26°C° 0 mm 2 mps 759 mmHg 54%
    23:00 +25°C° 0 mm 2 mps 759 mmHg 54%

    3 July, Monday

    Time Temperature Precipitation Wind Pressure Humidity
    00:00 +25°C° 0 mm 2 mps 759 mmHg 55%
    01:00 +25°C° 0 mm 2 mps 759 mmHg 55%
    02:00 +24°C° 0 mm 2 mps 759 mmHg 54%
    03:00 +24°C° 0 mm 2 mps 758 mmHg 53%
    04:00 +24°C° 0 mm 2 mps 758 mmHg 53%
    05:00 +24°C° 0 mm 2 mps 758 mmHg 50%
    06:00 +24°C° 0 mm 2 mps 759 mmHg 48%
    07:00 +24°C° 0 mm 2 mps 759 mmHg 45%
    08:00 +27°C° 0 mm 2 mps 759 mmHg 36%
    09:00 +30°C° 0 mm 2 mps 759 mmHg 27%
    10:00 +34°C° 0 mm 2 mps 759 mmHg 18%
    11:00 +35°C° 0 mm 3 mps 759 mmHg 18%
    12:00 +37°C° 0 mm 3 mps 758 mmHg 18%
    13:00 +38°C° 0 mm 4 mps 758 mmHg 18%
    14:00 +36°C° 0 mm 5 mps 758 mmHg 25%
    15:00 +34°C° 0 mm 5 mps 757 mmHg 33%
    16:00 +32°C° 0 mm 5 mps 757 mmHg 40%
    17:00 +29°C° 0 mm 4 mps 758 mmHg 49%
    18:00 +27°C° 0 mm 3 mps 758 mmHg 58%
    19:00 +25°C° 0 mm 2 mps 759 mmHg 67%
    20:00 +25°C° 0 mm 2 mps 760 mmHg 68%
    21:00 +25°C° 0 mm 2 mps 760 mmHg 70%
    22:00 +25°C° 0 mm 1 mps 760 mmHg 72%
    23:00 +24°C° 0 mm 1 mps 760 mmHg 70%

    4 July, Tuesday

    Time Temperature Precipitation Wind Pressure Humidity
    00:00 +24°C° 0 mm 1 mps 760 mmHg 69%
    01:00 +24°C° 0 mm 1 mps 759 mmHg 67%
    02:00 +24°C° 0 mm 1 mps 759 mmHg 65%
    03:00 +24°C° 0 mm 1 mps 759 mmHg 64%
    04:00 +24°C° 0 mm 2 mps 759 mmHg 62%
    05:00 +24°C° 0 mm 2 mps 759 mmHg 61%
    06:00 +24°C° 0 mm 2 mps 759 mmHg 59%
    07:00 +23°C° 0 mm 2 mps 760 mmHg 58%
    08:00 +26°C° 0 mm 2 mps 760 mmHg 48%
    09:00 +29°C° 0 mm 2 mps 760 mmHg 37%
    10:00 +32°C° 0 mm 2 mps 760 mmHg 26%
    11:00 +33°C° 0 mm 3 mps 760 mmHg 27%
    12:00 +34°C° 0 mm 4 mps 759 mmHg 29%
    13:00 +35°C° 0 mm 5 mps 759 mmHg 30%
    14:00 +33°C° 0 mm 5 mps 758 mmHg 39%
    15:00 +32°C° 0 mm 5 mps 758 mmHg 48%
    16:00 +29°C° 0 mm 5 mps 758 mmHg 58%
    17:00 +27°C° 0 mm 4 mps 759 mmHg 65%
    18:00 +26°C° 0 mm 3 mps 759 mmHg 72%
    19:00 +24°C° 0 mm 2 mps 760 mmHg 79%
    20:00 +24°C° 0 mm 2 mps 760 mmHg 80%
    21:00 +24°C° 0 mm 1 mps 761 mmHg 81%
    22:00 +23°C° 0 mm 1 mps 761 mmHg 82%
    23:00 +23°C° 0 mm 1 mps 761 mmHg 83%
    Show more